Weather History for KNID - April, 2013

Change the Weather History Date:

Friday, April 26, 2013

  Actual Average Record
Temperature  
Mean Temperature 71 °F -  
Max Temperature 89 °F 76 °F 91 °F (2004)
Min Temperature 53 °F 52 °F 43 °F (2005)
Cooling Degree Days 6    
Growing Degree Days 21 (Base 50)    
Moisture  
Dew Point 25 °F    
Average Humidity 23    
Maximum Humidity 47    
Minimum Humidity 6    
Precipitation  
Precipitation 0.00 in - - ()
Sea Level Pressure  
Sea Level Pressure 30.04 in    
Wind  
Wind Speed 5 mph (SE)    
Max Wind Speed 12 mph    
Max Gust Speed 17 mph    
Visibility 10 miles    
Events      
Averages and records for this station are not official NWS values.
T = Trace of Precipitation, MM = Missing Value Source: NWS Daily Summary

Daily Weather History Graph

Daily Weather History Graph

Search for Another Location

Airport or City:

Trip Planner

Search our weather history database for the weather conditions in past years. The results will help you decide how hot, cold, wet, or windy it might be!

Date:

Astronomy

Apr. 26, 2013 Rise Set
Actual Time 6:03 AM PDT 7:33 PM PDT
Civil Twilight 5:37 AM PDT 8:00 PM PDT
Nautical Twilight 5:04 AM PDT 8:33 PM PDT
Astronomical Twilight 4:30 AM PDT 9:07 PM PDT
Moon 8:58 PM PDT (4/26) 6:37 AM PDT (4/26)
Length of Visible Light 14h 23m
Length of Day
13h 29m
Full, 99% of the Moon is Illuminated
Apr 26
Full
May 2
Last Quarter
May 9
New
May 17
First Quarter
May 24
Full

Hourly Weather History & Observations

Time (PDT) Temp. Dew Point Humidity Pressure Visibility Wind Dir Wind Speed Gust Speed Precip Events Conditions
12:56 AM 63.0 °F 33.1 °F 33% 29.95 in 10.0 mi SSW 8.1 mph - N/A   Clear
1:56 AM 59.0 °F 30.9 °F 35% 29.97 in 10.0 mi Calm Calm - N/A   Clear
2:56 AM 54.0 °F 28.9 °F 38% 29.99 in 10.0 mi Calm Calm - N/A   Clear
3:56 AM 54.0 °F 28.9 °F 38% 30.00 in 10.0 mi South 4.6 mph - N/A   Clear
4:56 AM 53.1 °F 30.9 °F 43% 30.01 in 10.0 mi SSE 6.9 mph - N/A   Clear
5:56 AM 53.1 °F 33.1 °F 47% 30.04 in 10.0 mi South 5.8 mph - N/A   Clear
6:56 AM 55.0 °F 32.0 °F 42% 30.07 in 10.0 mi Calm Calm - N/A   Clear
7:56 AM 61.0 °F 33.1 °F 35% 30.09 in 10.0 mi Calm Calm - N/A   Clear
8:56 AM 64.9 °F 33.1 °F 31% 30.10 in 10.0 mi Calm Calm - N/A   Clear
9:56 AM 72.0 °F 33.1 °F 24% 30.10 in 10.0 mi East 3.5 mph - N/A   Clear
10:56 AM 80.1 °F 25.0 °F 13% 30.09 in 10.0 mi East 4.6 mph - N/A   Clear
11:56 AM 82.9 °F 19.0 °F 9% 30.07 in 10.0 mi Variable 4.6 mph - N/A   Clear
12:56 PM 86.0 °F 16.0 °F 7% 30.05 in 10.0 mi ESE 9.2 mph 17.3 mph N/A   Clear
1:56 PM 87.1 °F 10.9 °F 6% 30.05 in 10.0 mi East 11.5 mph 17.3 mph N/A   Clear
2:56 PM 87.1 °F 12.0 °F 6% 30.04 in 10.0 mi Variable 5.8 mph - N/A   Clear
3:56 PM 89.1 °F 12.0 °F 6% 30.01 in 10.0 mi Variable 3.5 mph - N/A   Clear
4:56 PM 88.0 °F 10.9 °F 6% 30.00 in 10.0 mi East 5.8 mph - N/A   Clear
5:56 PM 87.1 °F 10.0 °F 6% 30.00 in 10.0 mi ENE 9.2 mph - N/A   Clear
6:56 PM 84.9 °F 10.0 °F 6% 30.00 in 10.0 mi ESE 5.8 mph - N/A   Clear
7:56 PM 79.0 °F 33.1 °F 19% 30.02 in 10.0 mi WSW 5.8 mph - N/A   Clear
8:56 PM 75.9 °F 34.0 °F 22% 30.04 in 10.0 mi WSW 5.8 mph - N/A   Clear
9:56 PM 70.0 °F 32.0 °F 25% 30.06 in 10.0 mi South 5.8 mph - N/A   Clear
10:56 PM 69.1 °F 33.1 °F 26% 30.06 in 10.0 mi ESE 3.5 mph - N/A   Clear
11:56 PM 64.9 °F 33.1 °F 31% 30.07 in 10.0 mi South 5.8 mph - N/A   Clear